Location: Caltech
(34.1382°N, 118.1253°W)
Time: 14:03:58
(UTC-07:00)

Cosmos 2333 Rocket - Visible Passes

Search period start: 05 July 2015 00:00
Search period end: 15 July 2015 00:00
Orbit: 840 x 862 km, 70.8° (Epoch: 05 July)

Date Brightness Start Highest point End Pass type
(mag) Time Alt. Az. Time Alt. Az. Time Alt. Az.
05 Jul 4.1 00:02:56 10° NNE 00:06:49 19° NE 00:07:24 19° ENE visible
05 Jul 3.3 01:46:00 10° NNW 01:49:23 34° NW 01:49:23 34° NW visible
05 Jul 4.1 23:50:41 10° NNE 23:54:34 19° NE 23:55:06 19° ENE visible
06 Jul 3.4 01:33:46 10° NNW 01:37:05 34° NW 01:37:05 34° NW visible
06 Jul 4.0 23:38:28 10° NNE 23:42:20 19° NE 23:42:50 19° ENE visible
07 Jul 3.4 01:21:31 10° NNW 01:24:49 33° NW 01:24:49 33° NW visible
07 Jul 4.0 23:26:13 10° NNE 23:30:06 19° NE 23:30:36 19° ENE visible
08 Jul 3.5 01:09:18 10° NNW 01:12:35 34° NW 01:12:35 34° NW visible
08 Jul 4.0 23:13:59 10° NNE 23:17:52 19° NE 23:18:25 19° ENE visible
09 Jul 3.4 00:57:03 10° NNW 01:00:24 34° NW 01:00:24 34° NW visible
09 Jul 4.0 23:01:44 10° NNE 23:05:37 19° NE 23:06:16 19° ENE visible
10 Jul 3.4 00:44:49 10° NNW 00:48:15 35° NW 00:48:15 35° NW visible
10 Jul 3.9 22:49:30 10° NNE 22:53:23 19° NE 22:54:09 19° ENE visible
11 Jul 3.4 00:32:35 10° NNW 00:36:09 36° NW 00:36:09 36° NW visible
11 Jul 3.9 22:37:16 10° NNE 22:41:09 19° NE 22:42:04 19° ENE visible
12 Jul 3.3 00:20:20 10° NNW 00:24:04 38° WNW 00:24:04 38° WNW visible
12 Jul 3.9 22:25:02 10° NNE 22:28:55 19° NE 22:30:01 18° ENE visible
13 Jul 3.2 00:08:07 10° NNW 00:12:01 40° WNW 00:12:01 40° WNW visible
13 Jul 3.8 22:12:47 10° NNE 22:16:40 19° NE 22:18:00 18° ENE visible
13 Jul 3.1 23:55:52 10° NNW 00:00:00 42° WNW 00:00:00 42° WNW visible
14 Jul 3.8 22:00:33 10° NNE 22:04:26 19° NE 22:06:01 18° ENE visible
14 Jul 3.0 23:43:38 10° NNW 23:48:01 45° WNW 23:48:01 45° WNW visible
